Location: Castillon
(43.7181°N, 0.5436°E)
Time: 13:44:33
(UTC+00:00)

Daily predictions for brighter satellites

Satellite Brightness Start Highest point End
(mag) Time Altitude Azimuth Time Altitude Azimuth Time Altitude Azimuth
STARLINK-1102 3.7 20:05:12 10° NW 20:09:21 74° NNE 20:13:28 10° ESE
NOSS 2-2 (D) 3.1 20:06:10 10° SSW 20:09:40 58° ESE 20:13:26 10° NE
Aureole 2 Rocket 2.0 20:07:16 10° SSW 20:10:20 88° E 20:13:16 10° NNE
CZ-2C R/B 2.8 20:04:54 10° NNE 20:10:34 81° ESE 20:16:09 10° S
ARGOS 4.3 20:06:04 10° S 20:11:10 44° W 20:16:21 10° NNW
Cosmos 1331 Rocket 4.3 20:06:35 10° S 20:11:28 47° ESE 20:16:26 10° NNE
STARLINK-1111 3.7 20:10:10 10° NW 20:14:20 80° NE 20:18:28 10° ESE
STARLINK-52 4.1 20:14:31 10° S 20:17:05 22° SE 20:19:40 10° E
SL-4 R/B 2.5 20:14:48 10° SW 20:19:17 51° SE 20:23:59 10° ENE
STARLINK-1073 3.6 20:15:08 10° NW 20:19:18 86° NE 20:23:26 10° SE
Cosmos 1943 Rocket 2.7 20:14:25 10° S 20:19:28 37° ESE 20:24:34 10° NE
Okean 2 Rocket 3.5 20:15:15 10° NNW 20:19:37 64° W 20:23:57 10° S
GPS 2-04 Rocket1 4.5 20:18:53 10° SW 20:20:47 14° SSW 20:22:43 10° SSE
SPOT 3 Rocket 3.7 20:16:20 10° S 20:21:28 76° WSW 20:26:40 10° NNW
Terra 4.0 20:21:18 10° E 20:23:24 13° ENE 20:25:30 10° NNE
STARLINK-1121 3.6 20:20:06 10° NW 20:24:15 88° SW 20:28:16 11° SE
Nadezhda 4 Rocket 4.3 20:19:06 10° SSE 20:24:55 47° E 20:30:44 10° NNE
NOSS 2-2 (E) 3.4 20:22:29 10° SW 20:26:00 72° NW 20:29:58 10° NNE
OE (NEXTSAT) 4.3 20:22:48 10° WSW 20:26:16 67° SSE 20:29:46 10° ENE
Cosmos 304 Rocket 3.9 20:21:49 10° SSW 20:26:36 83° WNW 20:31:27 10° NNE
H-2A R/B 4.2 20:24:35 10° SSW 20:28:41 24° W 20:32:55 10° NW
STARLINK-1106 3.6 20:25:06 10° WNW 20:29:15 81° SW 20:33:05 12° SE
FALCON 9 DEB 4.5 20:26:58 10° S 20:29:30 20° SE 20:32:03 10° E
Resurs 01 Rocket 1.6 20:25:25 10° SSE 20:29:52 86° ENE 20:34:21 10° NNW
Cosmos 1833 Rocket 4.5 20:25:14 10° NW 20:29:54 28° WSW 20:34:35 10° SSW
USA 245 3.9 20:28:14 12° ESE 20:30:02 21° ENE 20:31:57 10° NNE
ATLAS CENTAUR R/B 3.3 20:28:19 11° SE 20:30:16 13° ESE 20:32:21 10° E
Cosmos 1300 Rocket 4.3 20:26:21 10° NNW 20:30:42 56° W 20:35:01 10° S
Cosmos 1437 Rocket 3.0 20:28:07 10° SSW 20:31:54 72° WNW 20:35:45 10° N
SL-27 R/B 4.2 20:31:17 10° N 20:34:02 21° ENE 20:36:32 11° ESE
STARLINK-1112 3.7 20:30:05 10° WNW 20:34:14 75° SW 20:37:52 13° SE
Cosmos 2279 Rocket 4.3 20:29:05 10° NNW 20:35:18 73° W 20:41:27 10° S
Cosmos 2151 Rocket 4.1 20:30:52 10° NNW 20:35:22 64° W 20:39:50 10° S
STARLINK-1128 3.7 20:35:03 10° WNW 20:39:10 69° SW 20:42:38 14° SE
Cosmos 2297 4.2 20:37:08 10° SW 20:42:47 67° WNW 20:48:30 10° NNE
STARLINK-1113 3.8 20:40:04 10° WNW 20:44:11 63° SW 20:47:26 15° SE
STARLINK-60 3.1 20:42:23 10° WSW 20:45:33 75° NNW 20:48:44 10° NE
Cosmos 2082 Rocket 3.6 20:40:30 10° NW 20:45:36 34° WSW 20:50:40 10° SSW
STARLINK-1119 3.9 20:45:03 10° WNW 20:49:07 57° SW 20:52:12 17° SE
Cosmos 1242 Rocket 4.3 20:48:43 15° ESE 20:50:02 17° E 20:52:29 10° NE
Cosmos 2369 Rocket 2.4 20:45:30 10° S 20:50:55 48° ESE 20:56:20 10° NE
BREEZE-M DEB 2.1 20:48:54 10° SW 20:51:04 66° SSE 20:55:14 10° ENE
NOSS 2-2 (C) 4.2 20:48:14 10° SW 20:51:42 49° NW 20:55:32 10° NNE
Cosmos 1674 Rocket 4.1 20:48:04 10° SSW 20:52:23 60° W 20:56:47 10° N
Cosmos 1378 Rocket 3.7 20:48:15 10° S 20:52:38 79° W 20:57:02 10° N
Abrixas rocket 3.6 20:50:23 10° W 20:52:46 22° SW 20:54:17 15° S
Cosmos 1766 3.8 20:49:00 10° N 20:52:52 45° ENE 20:55:36 18° SE
ATLAS 3B CENTAUR R/B 4.4 20:37:08 10° WSW 20:53:08 37° S 21:00:02 15° SE
STARLINK-1114 4.0 20:50:04 10° WNW 20:54:06 52° SW 20:57:00 18° SSE
MetOp-B 4.1 20:49:20 11° SSE 20:54:33 90° E 20:59:57 10° NNW
Meteor 1-15 Rocket 4.5 20:50:54 10° NNW 20:56:51 76° W 21:02:41 10° S
ATLAS 2AS CENTAUR R/B 3.4 20:49:42 10° S 20:57:04 44° ESE 21:04:30 10° NE
STARLINK-1130 (DARKSAT) 4.2 20:55:03 10° WNW 20:59:03 48° SW 21:01:46 19° SSE
NOSS 3-2 (A) 4.1 20:52:06 10° NW 20:59:43 84° NE 21:06:43 17° SE
STARLINK-1212 4.5 20:57:09 10° NW 20:59:59 30° NNE 21:02:33 11° E
STARLINK-1105 4.4 20:57:39 10° NW 21:00:28 30° NNE 21:03:01 12° E
STARLINK-1247 4.4 20:58:29 10° NW 21:01:19 31° NNE 21:03:52 12° E
Cosmos 292 Rocket 4.2 20:57:16 12° S 21:01:26 41° ESE 21:05:59 10° NE
STARLINK-1227 4.4 20:58:59 10° NW 21:01:48 31° NNE 21:04:18 12° E
SL-8 R/B 4.1 20:57:24 10° WNW 21:02:04 52° SSW 21:05:16 19° SE
ERS-1 Rocket 3.5 20:59:14 17° SE 21:02:50 46° ENE 21:07:38 10° N
STARLINK-1226 4.4 21:00:01 10° NW 21:02:51 31° NNE 21:05:20 12° E
STARLINK-1215 4.4 21:00:45 10° NW 21:03:36 31° NNE 21:06:03 13° E
STARLINK-1084 4.3 21:00:04 10° WNW 21:04:01 43° SW 21:06:33 19° SSE
STARLINK-1229 4.3 21:01:34 10° NW 21:04:17 30° NNE 21:06:32 13° E
STARLINK-1270 4.3 21:02:23 10° NW 21:05:07 31° NNE 21:07:19 13° E
STARLINK-1209 3.9 21:02:19 10° NW 21:05:17 40° NNE 21:07:22 17° E
BREEZE-M DEB (TANK) 4.1 20:49:48 10° WNW 21:05:22 82° NNE 21:09:24 16° ESE
STARLINK-1217 4.3 21:02:35 10° NW 21:05:28 32° NNE 21:07:50 13° E
STARLINK-1189 4.2 21:04:40 10° NW 21:07:26 32° NNE 21:09:34 14° E
STARLINK-1188 4.2 21:06:03 10° NW 21:08:52 33° NNE 21:10:59 15° E
STARLINK-1098 4.4 21:05:04 10° WNW 21:08:57 40° SW 21:11:19 20° SSE
STARLINK-1191 4.1 21:09:16 10° NW 21:12:09 35° NNE 21:14:11 16° E
STARLINK-1444 3.2 21:10:23 10° WSW 21:12:17 40° NNW 21:14:12 10° NE
STARLINK-1452 3.2 21:10:25 10° WSW 21:12:18 40° NNW 21:14:11 10° NE
STARLINK-1221 4.1 21:10:16 10° NW 21:13:09 35° NNE 21:15:08 17° E
STARLINK-1436 (VISORSAT) 3.3 21:12:10 10° WSW 21:14:02 38° NNW 21:15:55 10° NE
USA 238 DEB 3.9 21:06:51 10° NW 21:14:07 84° SW 21:19:44 19° SSE
STARLINK-1450 3.3 21:12:15 10° WSW 21:14:08 38° NNW 21:16:01 10° NE
STARLINK-1222 4.1 21:11:16 10° NW 21:14:10 36° NNE 21:16:07 17° E
USA 238 3.9 21:06:57 10° NW 21:14:13 85° SW 21:19:50 19° SSE
STARLINK-1392 3.3 21:12:21 10° WSW 21:14:14 38° NNW 21:16:07 10° NE
STARLINK-1398 3.3 21:12:21 10° WSW 21:14:14 38° NNW 21:16:07 10° NE
STARLINK-1399 3.3 21:12:21 10° WSW 21:14:14 38° NNW 21:16:07 10° NE
STARLINK-1393 3.3 21:12:22 10° WSW 21:14:15 38° NNW 21:16:08 10° NE
STARLINK-1395 3.3 21:12:22 10° WSW 21:14:15 38° NNW 21:16:08 10° NE
STARLINK-1394 3.3 21:12:22 10° WSW 21:14:15 38° NNW 21:16:08 10° NE
STARLINK-1415 3.3 21:12:22 10° WSW 21:14:15 38° NNW 21:16:08 10° NE
STARLINK-1414 3.3 21:12:23 10° WSW 21:14:15 38° NNW 21:16:09 10° NE
STARLINK-1396 3.3 21:12:23 10° WSW 21:14:16 38° NNW 21:16:09 10° NE
STARLINK-1397 3.3 21:12:23 10° WSW 21:14:16 38° NNW 21:16:09 10° NE
STARLINK-1416 3.3 21:12:24 10° WSW 21:14:16 38° NNW 21:16:10 10° NE
STARLINK-1404 3.3 21:12:24 10° WSW 21:14:16 38° NNW 21:16:10 10° NE
STARLINK-1401 3.3 21:12:24 10° WSW 21:14:16 38° NNW 21:16:10 10° NE
STARLINK-1419 3.3 21:12:24 10° WSW 21:14:17 37° NNW 21:16:10 10° NE
STARLINK-1408 3.3 21:12:25 10° WSW 21:14:17 37° NNW 21:16:11 10° NE
STARLINK-1453 3.3 21:12:25 10° WSW 21:14:17 37° NNW 21:16:11 10° NE
STARLINK-1437 3.3 21:12:25 10° WSW 21:14:18 37° NNW 21:16:11 10° NE
STARLINK-1417 3.3 21:12:26 10° WSW 21:14:18 37° NNW 21:16:12 10° NE
STARLINK-1402 3.3 21:12:26 10° WSW 21:14:18 37° NNW 21:16:12 10° NE
STARLINK-1420 3.3 21:12:26 10° WSW 21:14:19 37° NNW 21:16:12 10° NE
STARLINK-1413 3.3 21:12:27 10° WSW 21:14:19 37° NNW 21:16:13 10° NE
STARLINK-1458 3.3 21:12:27 10° WSW 21:14:19 37° NNW 21:16:13 10° NE
STARLINK-1406 3.3 21:12:28 10° WSW 21:14:20 37° NNW 21:16:13 10° NE
STARLINK-1460 3.3 21:12:28 10° WSW 21:14:20 37° NNW 21:16:13 10° NE
STARLINK-1422 3.3 21:12:28 10° WSW 21:14:20 37° NNW 21:16:14 10° NE
STARLINK-1440 3.3 21:12:28 10° WSW 21:14:21 37° NNW 21:16:14 10° NE
STARLINK-1445 3.3 21:12:28 10° WSW 21:14:21 37° NNW 21:16:15 10° NE
STARLINK-1443 3.3 21:12:30 10° WSW 21:14:22 37° NNW 21:16:16 10° NE
STARLINK-1446 3.3 21:12:30 10° WSW 21:14:23 37° NNW 21:16:17 10° NE
STARLINK-1454 3.3 21:12:30 10° WSW 21:14:23 37° NNW 21:16:17 10° NE
STARLINK-1451 3.3 21:12:32 10° WSW 21:14:24 37° NNW 21:16:18 10° NE
STARLINK-1457 3.3 21:12:31 10° WSW 21:14:24 37° NNW 21:16:17 10° NE
STARLINK-1456 3.3 21:12:31 10° WSW 21:14:24 37° NNW 21:16:18 10° NE
STARLINK-1442 3.3 21:12:33 10° WSW 21:14:25 37° NNW 21:16:19 10° NE
STARLINK-1455 3.3 21:12:33 10° WSW 21:14:25 37° NNW 21:16:19 10° NE
STARLINK-1447 3.3 21:12:32 10° WSW 21:14:25 37° NNW 21:16:19 10° NE
STARLINK-1449 3.3 21:12:33 10° WSW 21:14:26 37° NNW 21:16:19 10° NE
STARLINK-1448 3.3 21:12:33 10° WSW 21:14:27 37° NNW 21:16:20 10° NE
STARLINK-1441 3.3 21:12:34 10° WSW 21:14:27 37° NNW 21:16:20 10° NE
STARLINK-1405 3.3 21:12:35 10° WSW 21:14:27 37° NNW 21:16:21 10° NE
STARLINK-1423 3.3 21:12:35 10° WSW 21:14:27 37° NNW 21:16:21 10° NE
STARLINK-1421 3.3 21:12:35 10° WSW 21:14:28 37° NNW 21:16:21 10° NE
STARLINK-1410 3.3 21:12:35 10° WSW 21:14:28 37° NNW 21:16:21 10° NE
STARLINK-1407 3.3 21:12:35 10° WSW 21:14:28 37° NNW 21:16:22 10° NE
STARLINK-1400 3.3 21:12:36 10° WSW 21:14:28 37° NNW 21:16:22 10° NE
STARLINK-1439 3.3 21:12:36 10° WSW 21:14:29 37° NNW 21:16:23 10° NE
STARLINK-1409 3.3 21:12:37 10° WSW 21:14:30 37° NNW 21:16:23 10° NE
STARLINK-1351 3.3 21:12:37 10° WSW 21:14:30 37° NNW 21:16:23 10° NE
STARLINK-1434 3.3 21:12:38 10° WSW 21:14:30 37° NNW 21:16:24 10° NE
STARLINK-1418 3.3 21:12:38 10° WSW 21:14:30 37° NNW 21:16:24 10° NE
STARLINK-1370 3.3 21:12:38 10° WSW 21:14:30 37° NNW 21:16:24 10° NE
STARLINK-1403 3.3 21:12:39 10° WSW 21:14:31 37° NNW 21:16:25 10° NE
STARLINK-1433 3.3 21:12:39 10° WSW 21:14:32 37° NNW 21:16:25 10° NE
STARLINK-1411 3.3 21:12:41 10° WSW 21:14:33 37° NNW 21:16:27 10° NE
STARLINK-1438 3.3 21:12:42 10° WSW 21:14:34 37° NNW 21:16:27 10° NE
STARLINK-1412 3.3 21:12:42 10° WSW 21:14:34 37° NNW 21:16:28 10° NE
Cosmos 1092 Rocket 3.9 21:08:42 10° S 21:14:42 73° E 21:20:51 10° NNE
Cosmos 968 Rocket 4.1 21:09:49 10° N 21:14:42 42° ENE 21:17:48 20° SE
Landsat 7 3.8 21:11:34 17° S 21:15:16 83° WSW 21:20:04 10° NNW
STARLINK-1214 4.0 21:12:26 10° NW 21:15:20 37° NNE 21:17:14 18° E
Cosmos 1975 Rocket 3.1 21:14:16 18° S 21:17:31 65° E 21:21:53 10° NNE
STARLINK-29 3.0 21:14:19 10° WSW 21:17:32 80° NW 21:20:46 10° NE
Cosmos 1025 Rocket 4.4 21:17:46 20° ESE 21:19:00 22° E 21:22:20 10° NE
STARLINK-1234 3.7 21:16:07 10° NW 21:19:30 53° NNE 21:21:28 22° E
STARLINK-1228 3.7 21:17:00 10° NW 21:20:30 54° NNE 21:22:31 22° E
Cosmos 1378 3.9 21:19:32 10° SSW 21:23:08 52° W 21:26:47 10° N
COSMOS 2455 3.5 21:21:21 20° SSE 21:24:46 35° ESE 21:30:09 10° NE
Cosmos 2195 Rocket 4.5 21:19:52 13° S 21:25:33 76° E 21:31:48 10° N
Cosmos 1805 3.7 21:22:38 10° NNW 21:26:30 58° W 21:29:06 19° S
BREEZE-M DEB (TANK) 4.3 21:05:53 10° WSW 21:26:47 80° NNW 21:31:25 10° ENE
STARLINK-1377 4.2 21:28:58 30° SE 21:28:58 30° SE 21:32:14 10° ENE
STARLINK-1187 3.5 21:26:18 10° NW 21:29:27 54° NNE 21:30:51 28° E
Cosmos 1470 3.5 21:27:58 10° N 21:31:36 37° ENE 21:32:50 29° ESE
STARLINK-1353 4.1 21:32:52 33° SE 21:32:53 33° SE 21:36:26 10° ENE
Meteor 1-22 Rocket 4.3 21:28:29 10° NNW 21:34:18 78° W 21:38:09 21° S
STARLINK-1375 4.1 21:35:42 33° SE 21:35:42 33° SE 21:38:57 10° ENE
Cosmos 1726 4.1 21:33:55 10° NNE 21:36:24 17° ENE 21:37:13 16° E
Spot 2 Rocket 4.4 21:34:57 14° SSW 21:38:58 43° W 21:43:47 10° NNW
Milstar 3 Cent rocket 4.5 21:32:01 10° SW 21:40:05 34° SSE 21:55:26 10° E
STARLINK-1323 4.5 21:42:27 22° ENE 21:42:27 22° ENE 21:43:48 10° ENE
STARLINK-1350 3.9 21:40:46 37° SSE 21:41:07 38° SE 21:44:47 10° ENE
STARLINK-1349 4.5 21:42:47 22° ENE 21:42:47 22° ENE 21:44:08 10° ENE
Cosmos 1733 3.6 21:37:31 10° NNW 21:41:16 58° W 21:43:09 26° SSW
STARLINK-1336 4.5 21:43:06 22° ENE 21:43:06 22° ENE 21:44:29 10° ENE
STARLINK-1331 4.5 21:43:26 23° ENE 21:43:26 23° ENE 21:44:50 10° ENE
STARLINK-1344 4.4 21:43:45 23° ENE 21:43:45 23° ENE 21:45:09 10° ENE
Cosmos 1842 3.3 21:39:48 22° SSW 21:42:10 74° W 21:46:04 10° N
STARLINK-1343 4.4 21:44:05 23° ENE 21:44:05 23° ENE 21:45:30 10° ENE
STARLINK-1346 4.3 21:44:17 25° ENE 21:44:17 25° ENE 21:45:51 10° ENE
STARLINK-1328 4.4 21:44:43 23° ENE 21:44:43 23° ENE 21:46:10 10° ENE
STARLINK-1354 4.4 21:45:05 23° ENE 21:45:05 23° ENE 21:46:32 10° ENE
STARLINK-1347 4.4 21:45:23 24° ENE 21:45:23 24° ENE 21:46:51 10° ENE
STARLINK-1357 4.4 21:45:43 24° ENE 21:45:43 24° ENE 21:47:13 10° ENE
RESURS DK-1 4.1 21:45:05 18° E 21:45:05 18° E 21:47:18 10° ENE
STARLINK-1335 4.3 21:46:00 24° ENE 21:46:00 24° ENE 21:47:30 10° ENE
STARLINK-1327 4.4 21:46:23 24° ENE 21:46:23 24° ENE 21:47:53 10° ENE
STARLINK-1340 4.3 21:46:43 25° ENE 21:46:43 25° ENE 21:48:14 10° ENE
STARLINK-1352 3.8 21:44:45 39° SSE 21:45:18 41° SE 21:49:02 10° ENE
STARLINK-1356 4.3 21:47:02 25° ENE 21:47:02 25° ENE 21:48:34 10° ENE
STARLINK-1345 4.3 21:47:22 25° ENE 21:47:22 25° ENE 21:48:54 10° ENE
STARLINK-1355 4.3 21:47:39 26° ENE 21:47:39 26° ENE 21:49:14 10° ENE
STARLINK-1321 4.3 21:48:00 26° ENE 21:48:00 26° ENE 21:49:34 10° ENE
STARLINK-1358 4.2 21:48:20 26° ENE 21:48:20 26° ENE 21:49:56 10° ENE
STARLINK-1332 4.2 21:48:38 26° ENE 21:48:38 26° ENE 21:50:14 10° ENE
STARLINK-1348 4.2 21:48:58 26° ENE 21:48:58 26° ENE 21:50:35 10° ENE
Cosmos 1455 Rocket 3.0 21:43:24 10° N 21:47:44 83° W 21:49:41 32° S
STARLINK-1330 4.2 21:49:18 27° ENE 21:49:18 27° ENE 21:50:55 10° ENE
STARLINK-1363 4.2 21:49:37 27° ENE 21:49:37 27° ENE 21:51:16 10° ENE
STARLINK-1337 4.2 21:49:57 27° ENE 21:49:57 27° ENE 21:51:36 10° ENE
STARLINK-1342 4.2 21:50:17 28° ENE 21:50:17 28° ENE 21:51:58 10° ENE
Meteor 2-13 Rocket 4.4 21:44:29 19° S 21:49:06 87° E 21:55:19 10° N
STARLINK-1364 4.1 21:50:36 28° ENE 21:50:36 28° ENE 21:52:19 10° ENE
STARLINK-1368 3.7 21:48:47 40° S 21:49:30 45° SE 21:53:17 10° ENE
STARLINK-1376 4.1 21:50:56 28° ENE 21:50:56 28° ENE 21:52:38 10° ENE
STARLINK-1360 4.1 21:51:15 29° ENE 21:51:15 29° ENE 21:52:59 10° ENE
Cosmos 2263 4.2 21:44:28 10° SSW 21:50:04 81° WNW 21:55:43 10° NNE
STARLINK-1361 4.1 21:51:36 28° ENE 21:51:36 28° ENE 21:53:18 10° ENE
STARLINK-1367 4.0 21:51:50 30° ENE 21:51:50 30° ENE 21:53:40 10° ENE
STARLINK-1366 4.1 21:52:14 29° ENE 21:52:14 29° ENE 21:53:59 10° ENE
Cosmos 1953 3.5 21:47:40 10° NNE 21:51:09 28° ENE 21:51:59 26° E
SPOT 5 3.2 21:48:42 26° S 21:51:44 76° WSW 21:57:07 10° NNW
CENTAUR R/B 3.2 21:44:10 10° NW 21:52:21 85° WSW 21:57:55 26° SSE
STARLINK-52 4.1 21:49:56 10° WSW 21:53:02 45° NNW 21:56:09 10° NE
S3M 4.4 21:47:25 10° N 21:53:24 48° ENE 21:56:24 28° SE
STARLINK-1369 3.6 21:52:47 40° S 21:53:42 49° SE 21:57:31 10° ENE
Cosmos 2026 Rocket 4.1 21:48:44 16° SSW 21:53:58 78° W 22:00:23 10° N
Cosmos 1503 Rocket 4.1 21:49:04 10° NNW 21:54:23 68° ENE 21:56:49 33° SE
CARTOSAT-1 4.0 21:54:31 28° SSW 21:56:36 55° W 22:00:52 10° NNW
Cosmos 1271 Rocket 2.6 21:56:17 42° S 21:57:32 79° E 22:01:30 10° NNE
STARLINK-1372 3.5 21:56:48 38° S 21:57:55 53° SE 22:01:47 10° ENE
SL-4 R/B 3.4 21:54:31 10° W 21:59:08 48° NNW 22:03:50 10° NE
ATLAS 3B R/B 3.1 21:52:58 10° NNW 21:59:40 58° NE 22:04:04 23° ESE
Terra 1.8 21:58:22 34° S 22:00:27 83° WSW 22:05:15 10° NNW
STARLINK-1378 3.4 21:59:49 43° S 22:00:42 56° SE 22:04:32 10° ENE
Cosmos 1943 Rocket 3.8 21:58:10 10° WSW 22:03:12 35° NW 22:08:19 10° N
BREEZE-M DEB (TANK) 3.3 21:53:55 10° SW 22:03:19 44° SSE 22:06:45 10° ENE
STARLINK-1379 3.4 22:03:11 46° SSW 22:04:03 59° SE 22:07:51 10° ENE
Cosmos 1553 Rocket 3.9 21:58:16 10° N 22:04:33 79° E 22:07:36 32° SSE
FALCON 9 DEB 3.7 22:02:53 10° WSW 22:06:16 57° NNW 22:09:40 10° NE
STARLINK-1329 3.3 22:06:16 43° SSW 22:07:17 63° SE 22:11:09 10° ENE
Cosmos 1174 3.2 22:06:48 58° SSW 22:07:22 89° W 22:11:05 10° NNE
ATLAS CENTAUR R/B 1.6 22:04:19 10° SW 22:08:43 70° NW 22:12:52 10° NNE
Cosmos 1833 4.2 22:03:11 10° NNW 22:08:51 82° WSW 22:11:17 36° SSE
Cosmos 1707 2.6 22:08:16 53° S 22:09:06 77° E 22:12:59 10° N
SL-27 R/B 4.1 22:06:10 10° NW 22:09:06 25° W 22:10:06 22° SW
Cosmos 1758 3.3 22:05:19 10° N 22:09:25 87° W 22:10:28 49° S
STARLINK-1235 3.2 22:06:59 10° WNW 22:10:14 59° SW 22:10:14 59° SW
SeaSat 1 3.7 22:07:20 10° NE 22:11:04 23° ESE 22:11:04 23° ESE
NOSS 3-2 (C) 4.3 22:04:34 10° NW 22:12:08 61° WSW 22:16:47 28° S
STARLINK-1362 3.3 22:11:07 36° SW 22:12:34 70° SE 22:16:29 10° ENE
STARLINK-1233 4.5 22:09:17 10° NW 22:13:18 46° NNE 22:15:21 25° E
COSMOS 2487 2.6 22:10:07 10° N 22:13:32 55° ENE 22:13:45 53° E
Cosmos 1354 Rocket 4.0 22:10:55 10° NNW 22:16:15 89° WSW 22:18:14 40° SSE
STARLINK-1373 3.3 22:15:16 33° SW 22:16:54 75° SE 22:20:50 10° ENE
Cosmos 1536 Rocket 3.4 22:16:15 47° S 22:17:28 83° E 22:21:52 10° N
STARLINK-1204 4.3 22:14:15 10° NW 22:18:18 49° NNE 22:20:08 28° E
STARLINK-1390 3.2 22:18:23 38° SW 22:19:45 79° SE 22:23:38 10° ENE
NOSS 3-4 (A) 3.7 22:13:52 10° SW 22:19:46 68° NW 22:26:04 10° NNE
NOSS 3-4 (C) 3.7 22:13:57 10° SW 22:19:52 68° NW 22:26:11 10° NNE
EO 1 Del DPAF 3.9 22:16:29 10° NNE 22:19:51 38° E 22:19:51 38° E
STARLINK-1238 4.2 22:19:13 10° NW 22:23:17 53° NNE 22:24:55 32° E
Cosmos 1656 Rocket 4.1 22:18:59 11° SW 22:24:15 61° WNW 22:29:46 10° NNE
Cosmos 1242 Rocket 4.2 22:22:43 19° WSW 22:24:39 30° WNW 22:27:56 10° N
STARLINK-1365 3.4 22:22:30 22° SW 22:24:59 88° SE 22:28:58 10° NE
Cosmos 1544 Rocket 4.3 22:20:54 10° NNW 22:25:02 45° W 22:26:32 32° SW
Meteor 1-16 Rocket 4.3 22:20:58 10° N 22:26:22 61° ENE 22:28:05 41° SE
Cosmos 2266 Rocket 4.0 22:24:05 37° SSE 22:26:22 61° E 22:32:18 10° NNE
Cosmos 2084 3.4 22:26:10 54° S 22:26:58 66° SE 22:31:25 10° NE
STARLINK-1201 4.1 22:24:12 10° NW 22:28:17 56° NNE 22:29:42 36° E
Cosmos 1655 Rocket 3.9 22:25:20 33° S 22:28:21 86° E 22:34:40 10° N
STARLINK-1206 4.0 22:29:10 10° NW 22:33:17 60° NNE 22:34:29 41° E
Cosmos 2369 Rocket 4.1 22:30:19 10° WSW 22:35:09 28° NW 22:40:01 10° N
STARLINK-1205 3.9 22:34:08 10° NW 22:38:16 65° NNE 22:39:15 47° E
Cosmos 2227 Rocket 4.1 22:35:05 10° N 22:39:26 22° NE 22:43:18 12° E
STARLINK-1338 3.5 22:37:52 28° WSW 22:39:44 73° NNW 22:43:31 10° NE
STARLINK-1218 3.7 22:39:08 10° NW 22:43:17 70° NNE 22:44:04 54° E
Spot 4 3.9 22:42:23 49° SE 22:43:33 67° ENE 22:48:23 10° N
Cosmos 2292 Rocket 3.1 22:44:12 62° NNE 22:44:12 62° NNE 22:46:49 10° N
ATLAS 2AS CENTAUR R/B 3.8 22:40:16 10° WSW 22:48:03 53° NW 22:55:47 10° NNE
STARLINK-1254 3.6 22:44:05 10° NW 22:48:14 76° NNE 22:48:49 62° E
Cosmos 2098 Rocket 4.4 22:45:55 37° SSE 22:48:58 67° E 22:56:20 10° NNE
STARLINK-1371 3.8 22:46:30 19° WSW 22:49:10 63° NNW 22:53:00 10° NE
Cosmos 1908 3.5 22:46:02 10° N 22:49:45 54° ENE 22:49:45 54° ENE
Cosmos 2058 Rocket 4.4 22:46:16 10° NNE 22:50:06 28° ENE 22:50:50 26° E
Cosmos 883 Rocket 4.4 22:44:04 10° N 22:50:13 80° E 22:52:19 44° SSE
Cosmos 1606 Rocket 3.8 22:46:54 10° N 22:51:10 53° E 22:51:37 51° ESE
Meteor 2-5 Rocket 4.1 22:51:49 41° SE 22:53:01 48° E 22:58:25 10° NNE
STARLINK-1231 3.5 22:49:02 10° NW 22:53:12 82° NE 22:53:35 71° E
STARLINK-1341 3.9 22:50:24 17° WSW 22:53:12 59° NNW 22:57:01 10° NE
ALOS 2 3.3 22:53:44 38° E 22:54:28 41° ENE 22:58:35 10° N
Cosmos 1867 4.3 22:49:34 10° NW 22:54:34 38° WSW 22:55:40 34° SW
KORONAS-FOTON 3.8 22:56:12 69° ENE 22:56:12 69° ENE 22:59:53 10° NNE
Cosmos 1025 Rocket 4.5 22:54:38 23° WSW 22:56:25 31° WNW 23:00:17 10° N
STARLINK-1374 4.0 22:54:13 16° WSW 22:57:07 55° NNW 23:00:55 10° NE
STARLINK-1232 3.5 22:54:04 10° NW 22:58:13 88° NE 22:58:25 81° ESE
CZ-4C R/B 3.6 22:59:36 20° E 22:59:36 20° E 23:02:53 10° ENE
STARLINK-1339 4.2 22:58:04 15° WSW 23:01:06 52° NNW 23:04:52 10° NE
In-Cosmos 22 4.3 22:59:31 38° SW 23:01:24 63° WNW 23:06:41 10° N
STARLINK-1208 3.5 22:59:00 10° NW 23:03:10 86° SW 23:03:10 86° SW
Cosmos 1300 4.2 23:01:47 10° NNE 23:05:02 26° ENE 23:05:02 26° ENE
STARLINK-1377 4.4 23:03:43 10° WSW 23:07:32 48° NNW 23:11:22 10° NE
STARLINK-1271 3.5 23:04:01 10° WNW 23:07:58 76° WSW 23:07:58 76° WSW
COSMOS 2455 3.9 23:04:53 10° WSW 23:10:35 43° NW 23:16:20 10° NNE
Nimbus 7 Rocket 4.4 23:05:00 10° NNE 23:11:05 73° ESE 23:12:50 48° S
Cosmos 1674 2.8 23:11:24 67° WNW 23:11:24 67° WNW 23:15:07 10° N
STARLINK-1353 4.5 23:07:54 10° WSW 23:11:42 46° NNW 23:15:30 10° NE
Cosmos 1726 3.4 23:08:21 10° NNW 23:11:42 32° W 23:11:43 32° W
STARLINK-1154 3.7 23:08:59 10° WNW 23:12:44 66° W 23:12:44 66° W
Cosmos 1340 Rocket 3.9 23:09:49 10° NNW 23:13:33 35° W 23:13:48 34° WSW
Cosmos 1777 Rocket 4.0 23:10:22 10° NNW 23:15:37 74° WSW 23:16:35 58° S
STARLINK-1197 3.9 23:13:58 10° WNW 23:17:30 58° W 23:17:30 58° W
Cosmos 921 Rocket 2.8 23:18:04 77° ESE 23:18:07 78° ESE 23:22:30 10° NNE
Cosmos 2228 2.8 23:14:01 10° N 23:18:16 78° W 23:18:24 77° SW
Thor Agena Rocket 4.2 23:14:11 10° N 23:19:17 50° WNW 23:21:25 31° SW
Cosmos 220 Rocket 3.9 23:20:04 77° SE 23:20:10 77° ESE 23:24:38 10° NNE
RESURS DK-1 3.4 23:20:56 32° W 23:22:08 41° WNW 23:26:04 10° NNE
STARLINK-1198 4.1 23:18:58 10° WNW 23:22:18 50° W 23:22:18 50° W
Timation 2 Rocket 3.9 23:17:30 10° NNW 23:23:44 73° WSW 23:25:18 50° S
Lacrosse 4 Rocket 3.6 23:21:32 10° N 23:24:49 21° NE 23:26:59 15° E
Cosmos 1980 Rocket 4.3 23:25:34 12° E 23:25:59 12° E 23:28:09 10° ENE
BREEZE-M R/B 3.8 23:16:27 10° WSW 23:26:04 90° NNW 23:30:27 10° ENE
Okean 1-7 Rocket 3.5 23:25:56 68° ESE 23:26:08 69° E 23:30:40 10° NNE
Cosmos 1953 4.1 23:24:21 10° NW 23:27:22 21° W 23:27:41 21° W
STARLINK-1199 4.3 23:23:57 10° WNW 23:27:04 44° W 23:27:04 44° W
USA 215 3.9 23:27:59 10° ESE 23:34:17 52° NNE 23:40:36 10° NW
Cosmos 1892 Rocket 3.4 23:34:23 75° WSW 23:34:36 77° W 23:38:59 10° N
Cosmos 1726 Rocket 3.6 23:30:30 10° NNW 23:34:48 64° W 23:34:55 64° WSW
STARLINK-1200 4.5 23:31:14 10° NW 23:35:17 48° NNE 23:36:41 33° E
SL-4 R/B 4.3 23:37:22 10° NNW 23:37:22 10° NNW 23:37:26 10° NNW
Cosmos 1809 Rocket 4.4 23:33:52 48° SSW 23:35:46 82° W 23:42:00 10° N
Meteor 1-24 Rocket 3.5 23:36:46 59° S 23:37:50 87° E 23:43:24 10° N
Helios 1A 3.1 23:38:21 63° E 23:38:30 64° ENE 23:42:39 10° N
ATLAS 5 CENTAUR R/B 3.9 23:36:16 10° W 23:38:55 17° NW 23:40:40 10° N
SL-4 R/B 4.2 23:35:21 10° WNW 23:39:41 31° N 23:44:00 10° ENE
STARLINK-1192 4.3 23:36:12 10° NW 23:40:17 51° NNE 23:41:28 38° E
Cosmos 2315 Rocket 4.4 23:35:39 10° NNW 23:41:38 52° W 23:43:30 39° SW
Nadezhda 2 Rocket 4.4 23:40:15 47° SSW 23:42:05 78° W 23:48:16 10° N
Cosmos 1626 2.4 23:42:49 65° NNW 23:42:49 65° NNW 23:46:04 10° N
SJ 16-02 2.1 23:40:01 10° N 23:44:16 43° ENE 23:44:59 39° E
STARLINK-1244 4.2 23:41:10 10° NW 23:45:15 55° NNE 23:46:13 43° ENE
Cosmos 2297 Rocket 2.3 23:40:46 10° NNW 23:46:25 72° ENE 23:48:02 47° SE
ATLAS CENTAUR R/B 4.4 23:46:35 10° WNW 23:48:19 12° NW 23:50:00 10° N
Cosmos 2219 3.1 23:43:02 10° NNW 23:48:44 90° ENE 23:50:00 56° SSE
SeaSat 1 3.1 23:44:12 10° NNE 23:48:58 50° WNW 23:50:49 33° WSW
Cosmos 1656 3.6 23:48:16 57° SSE 23:49:14 69° ESE 23:54:48 10° NNE
ATLAS 3B R/B 3.6 23:44:05 10° NW 23:50:04 33° WSW 23:51:18 31° SW
STARLINK-1138 4.1 23:46:08 10° NW 23:50:14 59° NNE 23:51:00 49° ENE
Cosmos 468 Rocket 4.2 23:52:35 50° ESE 23:53:00 52° ESE 23:57:58 10° NNE
STARLINK-1143 3.9 23:51:06 10° NW 23:55:14 63° NNE 23:55:48 56° ENE
